Regional Weather Roundup
Issued by NWS

Home | Current Version | Previous Version | Graphics & Text | Print | Product List | Glossary On
Versions: 1 2 3 4 5 6 7 8 9 10 11 12 13 14 15 16 17 18 19 20 21 22 23 24 25 26 27 28 29 30 31 32 33 34 35 36 37 38 39 40 41 42 43 44 45 46 47 48 49 50
000
ASUS43 KLSX 011959
RWRMO

WEATHER SUMMARY FOR MISSOURI
NATIONAL WEATHER SERVICE SPRINGFIELD MO
300 PM CDT SAT AUG 01 2015

NOTE: "FAIR" INDICATES FEW OR NO CLOUDS BELOW 12,000 FEET WITH NO
       SIGNIFICANT WEATHER AND/OR OBSTRUCTIONS TO VISIBILITY.
       CURRENT SKY AND/OR WEATHER CONDITIONS ARE NOT AVAILABLE FOR
       CHILLICOTHE AND FARMINGTON.

MOZ001>031-035>038-043-044-053-054-012100-
...NORTHERN AND WESTERN MISSOURI...

CITY           SKY/WX    TMP DP  RH WIND       PRES   REMARKS
KANSAS CTY INT MOSUNNY   91  73  55 VRB6      30.00F HX  99
KANSAS C DTWN  MOSUNNY   93  73  52 VRB6      29.98F HX 102
LEE`S SUMMIT   MOSUNNY   91  71  51 VRB5      30.01F HX  97
ST JOSEPH      MOSUNNY   89  76  65 NW6       29.98F HX 100
CHILLICOTHE      N/A     89  74  60 CALM      29.98F HX  98
KIRKSVILLE     MOSUNNY   88  73  61 S8        30.00F HX  95

$$
MOZ066>068-077>081-088>096-101>105-012100-
...SOUTHWEST MISSOURI...

CITY           SKY/WX    TMP DP  RH WIND       PRES   REMARKS
SPRINGFIELD    SUNNY     89  59  36 CALM      30.04F
JOPLIN         SUNNY     93  66  40 VRB5      30.03F HX  96

$$
MOZ032>034-039>042-045>050-055>058-069>072-012100-
...CENTRAL MISSOURI...

CITY           SKY/WX    TMP DP  RH WIND       PRES   REMARKS
COLUMBIA       PTSUNNY   87  70  56 NW6       30.01F HX  92
JEFFERSON CITY MOSUNNY   89  65  44 N3        29.98F HX  91
ROLLA          MOSUNNY   83  68  60 W7        30.02F
SEDALIA        TSTM      75  63  66 SW16G28   30.06R VSB 3/4
WHITEMAN AFB   PTSUNNY   75  67  77 SE7       30.06R
WARRENSBURG    MOSUNNY   81  66  61 SE13G23   30.03R
OSAGE BEACH    MOSUNNY   86  70  58 CALM      30.02F HX  90

$$
MOZ051-052-059>065-012100-
...EAST CENTRAL MISSOURI...

CITY           SKY/WX    TMP DP  RH WIND       PRES   REMARKS
ST LOUIS INTL  PTSUNNY   90  62  39 SW6       30.00F HX  90
SPIRIT OF STL  PTSUNNY   87  67  51 CALM      29.99F HX  90
ST CHARLES     CLOUDY    85  64  49 SE5       29.99F

$$
MOZ072>076-082>087-097>100-106>115-012100-
...SOUTH CENTRAL AND SOUTHEAST MISSOURI...

CITY           SKY/WX    TMP DP  RH WIND       PRES   REMARKS
CAPE GIRARDEAU PTSUNNY   90  69  50 VRB3      30.00F HX  94
FARMINGTON     PTSUNNY   86  68  54 CALM      30.06F
POPLAR BLUFF   MOSUNNY   92  68  45 N3        29.98F HX  96
WEST PLAINS    SUNNY     90  60  36 MISG      30.06F

$$


USA.gov is the U.S. government's official web portal to all federal, state and local government web resources and services.